Location: Wellington
(41.3000°S, 174.7830°E)
Time: 09:15:06
(UTC+13:00)

Cosmos 2322 Rocket - Pass Details

Date: 24 January 2019
Orbit: 834 x 849 km, 71.0° (Epoch: 16 February)

Event Time Altitude Azimuth Distance (km) Brightness Sun altitude
Rises 21:13:23 0° 5° (N) 3,383 5.0 -4.8°
Reaches altitude 10° 21:16:01 10° 14° (NNE) 2,459 4.2 -5.2°
Maximum altitude 21:21:01 33° 76° (ENE) 1,396 2.9 -6.0°
Drops below altitude 10° 21:26:04 10° 138° (SE) 2,496 4.6 -6.8°
Sets 21:28:45 0° 147° (SSE) 3,442 5.4 -7.2°
